Starlink 1151

operational
NORAD ID: 45081 Int'l Des: 2020-006 Owner: SPXS Country: US Constellation: starlink
LEOCIRCULARSTARLINK_TYPE

Über Starlink 1151

Beschreibung wird geladen...

Live-Position

3D-Globus wird geladen...

Nächste Überflüge

Höhenverlauf

Altitude vs Time

uPlot chart will show altitude changes over time

Zweizeiliger Elementsatz

1 45081U 20006AP 25351.33339120 .02012375 00000-0 67314-1 0 9998
2 45081 53.0549 275.3161 0001764 66.1419 327.4726 15.27129592 5791
Epoch: 17. Dez. 2025 • Age: 6 hours

Aktueller Status

Höhe 500.7 km
Geschwindigkeit 7.61 km/s
Subsatellitenpunkt -52.06°S, 92.64°W
Startdatum 29. Jan. 2020
Alter 5.8 years
Typ internet

Technische Details

Klassifizierung Payload
Masse 260.00 kg
Trockenmasse 248.00 kg
Gesamtmasse 260.00 kg
Länge 0.20 m
Durchmesser 2.80 m
Spannweite 9.00 m
Form Box + pan
Hersteller SPXS
Bus-Typ Starlink
Phasenstatus In Orbit
Besitzer/Staat SPXS/US

Große Konstellationen

Loading constellations...